Flag for Norway Weather past 2 weeks in Spydeberg, Norway

Now
54 °F

Partly sunny.


Feels Like: 50 °F
Forecast: 40 / 52 °F
Wind: 13 mph from Southwest

Location: Rygge

Current Time: Sep 23, 2014 at 2:32:52 PM

Latest Report: Sep 23, 2014 at 1:50 PM


Visibility: N/A

Pressure: 29.95 "Hg

Humidity: 58%

Dew point: 39 °F

Location of SpydebergLocation

Historic Weather in Spydeberg — Graph

°F

Spydeberg temperature yesterday

Maximum temperature yesterday: 55 °F (at 2:20 PM)
Minimum temperature yesterday: 43 °F (at 11:20 PM)
Average temperature yesterday: 50 °F

Past Weeks' High & Low Weather Summary

 TemperatureHumidityPressure
High68 °F (Sep 13, 2:50 PM)100% (Sep 8, 10:50 PM)30.48 "Hg (Sep 8, 10:50 PM)
Low34 °F (Sep 23, 4:20 AM)41% (Sep 22, 2:20 PM)29.77 "Hg (Sep 9, 2:20 AM)
Average55 °F80%30.15 "Hg
* Reported Sep 8 1:20 PM — Sep 23 1:20 PM, Spydeberg, Weather by CustomWeather, © 2014

Note: Actual official high and low records may vary slightly from our data, if they occured in-between our weather recording intervals... More about our weather records

Advertising

Spydeberg weather history for previous 24 hours

 ConditionsComfort  
Time TempWeatherWind HumidityBarometerVisibility
1:20 PM
Sep 23
55 °FPartly sunny.12 mph59%29.98 "HgN/A
12:50 PM54 °FPartly sunny.14 mph58%29.98 "HgN/A
12:20 PM54 °FPartly sunny.12 mph58%29.98 "HgN/A
11:20 AM48 °FPartly sunny.7 mph76%29.98 "HgN/A
10:50 AM48 °FPartly sunny.7 mph76%30.01 "HgN/A
10:20 AM46 °FBroken clouds.6 mph76%30.01 "HgN/A
9:50 AM46 °FPartly sunny.5 mph76%30.01 "HgN/A
9:20 AM43 °FPartly sunny.5 mph87%30.01 "HgN/A
8:50 AM43 °FPassing clouds.3 mph87%30.01 "HgN/A
8:20 AM39 °FSunny.3 mph93%30.01 "Hg10 mi
7:50 AM37 °FClear.2 mph100%30.01 "Hg10 mi
7:20 AM37 °FClear.2 mph93%30.04 "Hg10 mi
6:50 AM37 °FClear.2 mph93%30.04 "Hg10 mi
6:20 AM36 °FClear.2 mph100%30.04 "Hg10 mi
5:50 AM37 °FOvercast.1 mph93%30.04 "HgN/A
5:20 AM36 °FOvercast.2 mph93%30.04 "HgN/A
4:50 AM36 °FOvercast.2 mph100%30.04 "HgN/A
4:20 AM34 °FPassing clouds.2 mph100%30.04 "HgN/A
3:50 AM36 °FPassing clouds.3 mph93%30.04 "HgN/A
3:20 AM36 °FPassing clouds.3 mph93%30.07 "HgN/A
2:50 AM36 °FChilly.No wind93%30.07 "HgN/A
2:20 AM37 °FChilly.1 mph87%30.07 "HgN/A
1:50 AM39 °FChilly.2 mph87%30.07 "HgN/A
1:20 AM37 °FChilly.3 mph87%30.07 "HgN/A
12:50 AM41 °FQuite cool.3 mph81%30.07 "HgN/A
12:20 AM41 °FQuite cool.2 mph81%30.07 "HgN/A
11:50 PM
Sep 22
43 °FQuite cool.2 mph71%30.07 "HgN/A
11:20 PM43 °FQuite cool.2 mph76%30.07 "HgN/A
10:50 PM45 °FClear.2 mph71%30.07 "HgN/A
10:20 PM45 °FClear.6 mph66%30.07 "Hg10 mi
9:50 PM46 °FClear.6 mph62%30.07 "Hg10 mi
9:20 PM45 °FClear.3 mph66%30.07 "Hg10 mi
8:50 PM46 °FClear.2 mph62%30.04 "Hg10 mi
8:20 PM48 °FClear.7 mph58%30.04 "Hg10 mi
7:50 PM48 °FSunny.6 mph58%30.04 "Hg10 mi
7:20 PM50 °FPassing clouds.6 mph54%30.04 "HgN/A
6:50 PM52 °FSunny.8 mph50%30.01 "Hg10 mi
6:20 PM52 °FSunny.9 mph47%30.01 "Hg10 mi
5:50 PM54 °FPassing clouds.8 mph47%30.01 "HgN/A
5:20 PM55 °FPassing clouds.10 mph41%30.01 "HgN/A
4:50 PM55 °FSunny.13 mph41%29.98 "Hg10 mi
4:20 PM55 °FPassing clouds.13 mph41%30.01 "HgN/A
3:50 PM55 °FPassing clouds.14 mph41%30.01 "HgN/A
3:20 PM55 °FPassing clouds.16 mph41%30.01 "HgN/A
2:50 PM55 °FSunny.15 mph41%30.01 "Hg10 mi
2:20 PM55 °FPassing clouds.14 mph41%30.01 "HgN/A
Weather by CustomWeather, © 2014

See weather overviewHow to use our weather pages